Estación de Tranapuente INIA
Ultimos registro cada 15 minutos 41
| N° | Estación | Fecha / Hora | Temperatura | Humedad | Lluvia | Velocidad | Dirección | Radiación | Presion |
| 41 | Tranapuente INIA | 09-05-2026 10:00 | 10,1 | 66,8 | 0 | 0 | 88 | 300 | 1019 |
| 40 | Tranapuente INIA | 09-05-2026 09:45 | 9,2 | 71 | 0 | 0 | 0 | 262 | 1019 |
| 39 | Tranapuente INIA | 09-05-2026 09:30 | 8,8 | 73,1 | 0 | 0 | 0 | 231 | 1019 |
| 38 | Tranapuente INIA | 09-05-2026 09:15 | 8,4 | 75,6 | 0 | 0 | 0 | 201 | 1019 |
| 37 | Tranapuente INIA | 09-05-2026 09:00 | 6,8 | 69,6 | 0 | 0 | 0 | 82 | 1019 |
| 36 | Tranapuente INIA | 09-05-2026 08:45 | 4,4 | 82,5 | 0 | 0 | 0 | 98 | 1019 |
| 35 | Tranapuente INIA | 09-05-2026 08:30 | 3,2 | 91,7 | 0 | 0 | 0 | 87 | 1019 |
| 34 | Tranapuente INIA | 09-05-2026 08:15 | 2,6 | 93,9 | 0 | 0 | 0 | 46 | 1019 |
| 33 | Tranapuente INIA | 09-05-2026 08:00 | 2,3 | 95,7 | 0 | 0 | 0 | 9 | 1019 |
| 32 | Tranapuente INIA | 09-05-2026 07:45 | 3,1 | 93,4 | 0 | 0 | 0 | 2 | 1019 |
| 31 | Tranapuente INIA | 09-05-2026 07:30 | 3,9 | 85,3 | 0 | 0 | 0 | 0 | 1019 |
| 30 | Tranapuente INIA | 09-05-2026 07:15 | 4,1 | 81,6 | 0 | 0 | 0 | 0 | 1019 |
| 29 | Tranapuente INIA | 09-05-2026 07:00 | 4,1 | 81,1 | 0 | 0 | 0 | 0 | 1019 |
| 28 | Tranapuente INIA | 09-05-2026 06:45 | 3,3 | 82,1 | 0 | 0 | 0 | 0 | 1019 |
| 27 | Tranapuente INIA | 09-05-2026 06:30 | 3,8 | 89,5 | 0 | 0 | 0 | 0 | 1019 |
| 26 | Tranapuente INIA | 09-05-2026 06:15 | 3,4 | 82,1 | 0 | 0 | 0 | 0 | 1019 |
| 25 | Tranapuente INIA | 09-05-2026 06:00 | 2,9 | 95,5 | 0 | 0 | 0 | 0 | 1019 |
| 24 | Tranapuente INIA | 09-05-2026 05:45 | 3,1 | 95,4 | 0 | 0 | 0 | 0 | 1019 |
| 23 | Tranapuente INIA | 09-05-2026 05:30 | 3,3 | 95,7 | 0 | 0 | 350 | 0 | 1018 |
| 22 | Tranapuente INIA | 09-05-2026 05:15 | 3,6 | 94,2 | 0 | 0,1 | 3 | 0 | 1018 |
| 21 | Tranapuente INIA | 09-05-2026 05:00 | 3,4 | 95,4 | 0 | 0 | 0 | 0 | 1018 |
| 20 | Tranapuente INIA | 09-05-2026 04:45 | 3,3 | 95,8 | 0 | 0,1 | 3 | 0 | 1019 |
| 19 | Tranapuente INIA | 09-05-2026 04:30 | 3 | 98,4 | 0 | 0 | 0 | 0 | 1019 |
| 18 | Tranapuente INIA | 09-05-2026 04:15 | 3 | 98,8 | 0,1 | 0 | 0 | 0 | 1019 |
| 17 | Tranapuente INIA | 09-05-2026 04:00 | 3,1 | 99,4 | 0 | 0 | 0 | 0 | 1019 |
| 16 | Tranapuente INIA | 09-05-2026 03:45 | 3,2 | 99,1 | 0 | 0 | 0 | 0 | 1019 |
| 15 | Tranapuente INIA | 09-05-2026 03:30 | 3,2 | 98 | 0 | 0 | 0 | 0 | 1019 |
| 14 | Tranapuente INIA | 09-05-2026 03:15 | 3,2 | 99,5 | 0 | 0 | 0 | 0 | 1019 |
| 13 | Tranapuente INIA | 09-05-2026 03:00 | 3,2 | 99,2 | 0 | 0 | 0 | 0 | 1019 |
| 12 | Tranapuente INIA | 09-05-2026 02:45 | 3,5 | 98,4 | 0 | 0,1 | 338 | 0 | 1020 |
| 11 | Tranapuente INIA | 09-05-2026 02:30 | 3,6 | 97,9 | 0 | 0,3 | 324 | 0 | 1020 |
| 10 | Tranapuente INIA | 09-05-2026 02:15 | 3,6 | 99,9 | 0 | 0,1 | 323 | 0 | 1020 |
| 9 | Tranapuente INIA | 09-05-2026 02:00 | 3,3 | 99,2 | 0 | 0 | 0 | 0 | 1020 |
| 8 | Tranapuente INIA | 09-05-2026 01:45 | 4 | 98,3 | 0 | 0 | 0 | 0 | 1020 |
| 7 | Tranapuente INIA | 09-05-2026 01:30 | 3,8 | 99,4 | 0 | 0 | 0 | 0 | 1020 |
| 6 | Tranapuente INIA | 09-05-2026 01:15 | 3,9 | 98,6 | 0 | 0 | 0 | 0 | 1020 |
| 5 | Tranapuente INIA | 09-05-2026 01:00 | 4,3 | 98 | 0 | 0 | 0 | 0 | 1020 |
| 4 | Tranapuente INIA | 09-05-2026 00:45 | 4,1 | 99,7 | 0 | 0 | 0 | 0 | 1020 |
| 3 | Tranapuente INIA | 09-05-2026 00:30 | 4,2 | 98,9 | 0 | 0,2 | 331 | 0 | 1020 |
| 2 | Tranapuente INIA | 09-05-2026 00:15 | 4,3 | 98 | 0 | 0,4 | 332 | 0 | 1019 |
| 1 | Tranapuente INIA | 09-05-2026 00:00 | 4,3 | 98,4 | 0 | 0,2 | 321 | 0 | 1019 |